| time (UTC) | temp C | wind direction | speed KPH | gust KPH | rain 1hr cm | rain 24hr cm | rain mn cm | humidity % | barometer mb |
| 20260504110439 | 10 | 208 | 17.7 | 20.9 | 0.00 | 0.00 | 0.00 | 70 | 1006.0 |
| 20260504100355 | 10 | 218 | 16.1 | 17.7 | 0.00 | 0.00 | 0.00 | 70 | 1005.6 |
| 20260504081748 | 11 | 215 | 19.3 | 22.5 | 0.00 | 0.00 | 0.00 | 64 | 1006.4 |
| 20260504081245 | 10 | 222 | 20.9 | 24.1 | 0.00 | 0.00 | 0.00 | 66 | 1006.4 |
| 20260504080742 | 11 | 204 | 24.1 | 27.4 | 0.00 | 0.00 | 0.00 | 65 | 1006.3 |
| 20260504080238 | 11 | 225 | 22.5 | 27.4 | 0.00 | 0.00 | 0.00 | 63 | 1006.5 |
| 20260504070206 | 10 | 205 | 24.1 | 27.4 | 0.00 | 0.00 | 0.00 | 65 | 1007.1 |
| 20260504060126 | 10 | 212 | 22.5 | 25.7 | 0.00 | 0.00 | 0.00 | 64 | 1007.9 |
| 20260504050554 | 10 | 225 | 19.3 | 22.5 | 0.00 | 0.00 | 0.00 | 65 | 1008.7 |
| 20260504045548 | 11 | 191 | 20.9 | 24.1 | 0.00 | 0.00 | 0.00 | 63 | 1008.8 |
| 20260504045043 | 11 | 188 | 22.5 | 25.7 | 0.00 | 0.00 | 0.00 | 63 | 1008.8 |
| 20260504044541 | 11 | 210 | 24.1 | 25.7 | 0.00 | 0.00 | 0.00 | 63 | 1008.7 |
| 20260504044038 | 11 | 200 | 22.5 | 25.7 | 0.00 | 0.00 | 0.00 | 64 | 1008.5 |
| 20260504043535 | 11 | 194 | 20.9 | 24.1 | 0.00 | 0.00 | 0.00 | 63 | 1008.8 |
| 20260504043032 | 11 | 200 | 19.3 | 24.1 | 0.00 | 0.00 | 0.00 | 64 | 1009.0 |
| 20260504042529 | 11 | 203 | 22.5 | 25.7 | 0.00 | 0.00 | 0.00 | 64 | 1009.0 |
| 20260504042026 | 11 | 204 | 22.5 | 24.1 | 0.00 | 0.00 | 0.00 | 64 | 1009.0 |
| 20260504041522 | 11 | 189 | 22.5 | 25.7 | 0.00 | 0.00 | 0.00 | 63 | 1009.1 |
| 20260504041018 | 11 | 195 | 20.9 | 22.5 | 0.00 | 0.00 | 0.00 | 64 | 1009.2 |
| 20260504040516 | 11 | 217 | 19.3 | 22.5 | 0.00 | 0.00 | 0.00 | 65 | 1009.2 |
| 20260504040013 | 11 | 208 | 20.9 | 24.1 | 0.00 | 0.00 | 0.00 | 64 | 1009.3 |
| 20260504035509 | 11 | 210 | 20.9 | 24.1 | 0.00 | 0.00 | 0.00 | 65 | 1009.3 |
| 20260504035005 | 11 | 198 | 20.9 | 22.5 | 0.00 | 0.00 | 0.00 | 65 | 1009.4 |
| 20260504034503 | 10 | 176 | 20.9 | 24.1 | 0.00 | 0.00 | 0.00 | 66 | 1009.5 |
| 20260504034000 | 10 | 212 | 19.3 | 22.5 | 0.00 | 0.00 | 0.00 | 66 | 1009.5 |
| 20260504033458 | 10 | 188 | 27.4 | 33.8 | 0.00 | 0.00 | 0.00 | 66 | 1009.5 |
| 20260504032955 | 10 | 205 | 17.7 | 17.7 | 0.00 | 0.00 | 0.00 | 67 | 1009.4 |
| 20260504032452 | 10 | 201 | 22.5 | 24.1 | 0.00 | 0.00 | 0.00 | 67 | 1009.4 |
| 20260504031948 | 10 | 184 | 25.7 | 27.4 | 0.00 | 0.00 | 0.00 | 67 | 1009.5 |
| 20260504031445 | 10 | 198 | 27.4 | 29.0 | 0.00 | 0.00 | 0.00 | 67 | 1009.5 |
| 20260504030942 | 10 | 192 | 29.0 | 35.4 | 0.00 | 0.00 | 0.00 | 67 | 1009.6 |
| 20260504030439 | 10 | 191 | 27.4 | 32.2 | 0.00 | 0.00 | 0.00 | 68 | 1009.7 |
| 20260504025935 | 10 | 195 | 22.5 | 29.0 | 0.00 | 0.00 | 0.00 | 68 | 1009.7 |
| 20260504025432 | 10 | 193 | 20.9 | 22.5 | 0.00 | 0.00 | 0.00 | 68 | 1009.8 |
| 20260504024929 | 10 | 177 | 20.9 | 24.1 | 0.00 | 0.00 | 0.00 | 69 | 1009.6 |
| 20260504024426 | 10 | 196 | 20.9 | 25.7 | 0.00 | 0.00 | 0.00 | 68 | 1010.1 |
| 20260504023923 | 10 | 217 | 20.9 | 24.1 | 0.00 | 0.00 | 0.00 | 66 | 1010.1 |
| 20260504023420 | 10 | 209 | 17.7 | 17.7 | 0.00 | 0.00 | 0.00 | 68 | 1010.1 |
| 20260504022915 | 10 | 194 | 20.9 | 24.1 | 0.00 | 0.00 | 0.00 | 67 | 1010.1 |
| 20260504022412 | 10 | 210 | 14.5 | 16.1 | 0.00 | 0.00 | 0.00 | 68 | 1009.9 |
| 20260504021909 | 10 | 196 | 17.7 | 20.9 | 0.00 | 0.00 | 0.00 | 67 | 1010.2 |
| 20260504021406 | 10 | 211 | 17.7 | 20.9 | 0.00 | 0.00 | 0.00 | 67 | 1010.0 |
| 20260504020903 | 10 | 200 | 16.1 | 17.7 | 0.00 | 0.00 | 0.00 | 68 | 1009.9 |
| 20260504020359 | 10 | 192 | 17.7 | 20.9 | 0.00 | 0.00 | 0.00 | 67 | 1010.1 |
| 20260504015855 | 11 | 208 | 17.7 | 17.7 | 0.00 | 0.00 | 0.00 | 66 | 1010.1 |
| 20260504015352 | 10 | 221 | 16.1 | 17.7 | 0.00 | 0.00 | 0.00 | 67 | 1010.1 |
| 20260504014848 | 11 | 208 | 16.1 | 16.1 | 0.00 | 0.00 | 0.00 | 66 | 1010.3 |
| 20260504014344 | 11 | 201 | 19.3 | 20.9 | 0.00 | 0.00 | 0.00 | 66 | 1010.2 |
| 20260504013842 | 11 | 201 | 16.1 | 20.9 | 0.00 | 0.00 | 0.00 | 67 | 1010.1 |
| 20260504013340 | 11 | 207 | 12.9 | 14.5 | 0.00 | 0.00 | 0.00 | 67 | 1010.2 |
| 20260504012836 | 11 | 199 | 14.5 | 17.7 | 0.00 | 0.00 | 0.00 | 67 | 1010.3 |
| 20260504012334 | 11 | 220 | 16.1 | 17.7 | 0.00 | 0.00 | 0.00 | 67 | 1010.1 |
| 20260504011831 | 11 | 210 | 16.1 | 17.7 | 0.00 | 0.00 | 0.00 | 66 | 1010.0 |
| 20260504011327 | 11 | 205 | 16.1 | 17.7 | 0.00 | 0.00 | 0.00 | 66 | 1010.4 |
| 20260504010823 | 11 | 205 | 16.1 | 17.7 | 0.00 | 0.00 | 0.00 | 66 | 1010.3 |
| 20260504010319 | 11 | 208 | 16.1 | 17.7 | 0.00 | 0.00 | 0.00 | 66 | 1010.2 |
| 20260504005816 | 11 | 210 | 14.5 | 16.1 | 0.00 | 0.00 | 0.00 | 67 | 1010.3 |
| 20260504005313 | 11 | 220 | 19.3 | 20.9 | 0.00 | 0.00 | 0.00 | 66 | 1010.4 |
| 20260504004811 | 11 | 224 | 19.3 | 24.1 | 0.00 | 0.00 | 0.00 | 65 | 1010.2 |
| 20260504004308 | 11 | 224 | 19.3 | 22.5 | 0.00 | 0.00 | 0.00 | 65 | 1010.4 |
| 20260504003804 | 11 | 215 | 24.1 | 25.7 | 0.00 | 0.00 | 0.00 | 64 | 1010.3 |
| 20260504003301 | 11 | 211 | 20.9 | 22.5 | 0.00 | 0.00 | 0.00 | 64 | 1010.4 |
| 20260504002757 | 11 | 215 | 20.9 | 22.5 | 0.00 | 0.00 | 0.00 | 62 | 1010.5 |
| 20260504002255 | 11 | 206 | 22.5 | 25.7 | 0.00 | 0.00 | 0.00 | 62 | 1010.5 |
| 20260504001752 | 11 | 217 | 17.7 | 20.9 | 0.00 | 0.00 | 0.00 | 63 | 1010.7 |
| 20260504001249 | 11 | 206 | 27.4 | 27.4 | 0.00 | 0.00 | 0.00 | 62 | 1010.5 |
| 20260504000746 | 11 | 221 | 27.4 | 32.2 | 0.00 | 0.00 | 0.00 | 62 | 1010.6 |
| 20260504000243 | 11 | 229 | 27.4 | 32.2 | 0.00 | 0.00 | 0.00 | 62 | 1010.8 |
| 20260503235741 | 12 | 227 | 30.6 | 33.8 | 0.00 | 0.00 | 0.00 | 61 | 1010.6 |
| 20260503235238 | 12 | 236 | 30.6 | 33.8 | 0.00 | 0.00 | 0.00 | 61 | 1010.6 |
| 20260503234736 | 12 | 222 | 30.6 | 33.8 | 0.00 | 0.00 | 0.00 | 61 | 1010.6 |
| 20260503234234 | 12 | 238 | 33.8 | 37.0 | 0.00 | 0.00 | 0.00 | 60 | 1010.8 |
| 20260503233730 | 12 | 230 | 35.4 | 40.2 | 0.00 | 0.00 | 0.00 | 61 | 1010.8 |
| 20260503233225 | 12 | 232 | 38.6 | 43.5 | 0.00 | 0.00 | 0.00 | 59 | 1010.7 |
| 20260503232717 | 12 | 227 | 45.1 | 48.3 | 0.00 | 0.00 | 0.00 | 58 | 1010.6 |
| 20260503232214 | 12 | 212 | 43.5 | 48.3 | 0.00 | 0.00 | 0.00 | 57 | 1010.6 |
| 20260503231713 | 13 | 216 | 37.0 | 43.5 | 0.00 | 0.00 | 0.00 | 56 | 1010.6 |
| 20260503231209 | 13 | 227 | 33.8 | 37.0 | 0.00 | 0.00 | 0.00 | 53 | 1010.4 |
| 20260503230705 | 13 | 238 | 45.1 | 49.9 | 0.00 | 0.00 | 0.00 | 52 | 1010.3 |
| 20260503230203 | 14 | 226 | 41.8 | 46.7 | 0.00 | 0.00 | 0.00 | 51 | 1010.2 |
| 20260503225659 | 15 | 244 | 40.2 | 41.8 | 0.00 | 0.00 | 0.00 | 49 | 1010.1 |
| 20260503225154 | 15 | 224 | 43.5 | 48.3 | 0.00 | 0.00 | 0.00 | 48 | 1010.3 |
| 20260503224652 | 15 | 234 | 43.5 | 48.3 | 0.00 | 0.00 | 0.00 | 47 | 1010.3 |
| 20260503224149 | 15 | 219 | 37.0 | 40.2 | 0.00 | 0.00 | 0.00 | 44 | 1010.2 |
| 20260503223647 | 16 | 208 | 37.0 | 40.2 | 0.00 | 0.00 | 0.00 | 37 | 1010.1 |
| 20260503223143 | 15 | 228 | 40.2 | 43.5 | 0.00 | 0.00 | 0.00 | 36 | 1010.1 |
| 20260503222641 | 15 | 217 | 38.6 | 43.5 | 0.00 | 0.00 | 0.00 | 37 | 1010.3 |
| 20260503222138 | 15 | 239 | 37.0 | 38.6 | 0.00 | 0.00 | 0.00 | 38 | 1010.3 |
| 20260503221637 | 16 | 230 | 54.7 | 61.2 | 0.00 | 0.00 | 0.00 | 36 | 1010.0 |
| 20260503221134 | 16 | 221 | 43.5 | 46.7 | 0.00 | 0.00 | 0.00 | 36 | 1010.3 |
| 20260503220630 | 16 | 230 | 43.5 | 49.9 | 0.00 | 0.00 | 0.00 | 36 | 1010.1 |
| 20260503220127 | 16 | 216 | 27.4 | 32.2 | 0.00 | 0.00 | 0.00 | 38 | 1010.1 |
| 20260503215624 | 16 | 225 | 32.2 | 37.0 | 0.00 | 0.00 | 0.00 | 38 | 1010.3 |
| 20260503215120 | 16 | 231 | 45.1 | 49.9 | 0.00 | 0.00 | 0.00 | 36 | 1010.1 |
| 20260503214619 | 16 | 224 | 37.0 | 41.8 | 0.00 | 0.00 | 0.00 | 37 | 1010.2 |
| 20260503214114 | 17 | 235 | 41.8 | 48.3 | 0.00 | 0.00 | 0.00 | 35 | 1010.3 |
| 20260503213609 | 16 | 222 | 38.6 | 41.8 | 0.00 | 0.00 | 0.00 | 35 | 1010.2 |
| 20260503213104 | 16 | 224 | 41.8 | 43.5 | 0.00 | 0.00 | 0.00 | 35 | 1010.4 |
| 20260503212602 | 16 | 193 | 32.2 | 37.0 | 0.00 | 0.00 | 0.00 | 36 | 1010.5 |
| 20260503212059 | 16 | 242 | 35.4 | 38.6 | 0.00 | 0.00 | 0.00 | 34 | 1010.2 |
| 20260503211556 | 17 | 233 | 46.7 | 49.9 | 0.00 | 0.00 | 0.00 | 33 | 1010.4 |
| 20260503211052 | 16 | 227 | 41.8 | 48.3 | 0.00 | 0.00 | 0.00 | 34 | 1010.5 |
| 20260503210549 | 17 | 224 | 48.3 | 51.5 | 0.00 | 0.00 | 0.00 | 33 | 1010.3 |
| 20260503210044 | 16 | 218 | 38.6 | 40.2 | 0.00 | 0.00 | 0.00 | 33 | 1010.5 |
| 20260503205542 | 17 | 222 | 38.6 | 41.8 | 0.00 | 0.00 | 0.00 | 33 | 1010.6 |
| 20260503205038 | 16 | 209 | 45.1 | 54.7 | 0.00 | 0.00 | 0.00 | 34 | 1010.3 |
| 20260503204535 | 17 | 235 | 46.7 | 59.5 | 0.00 | 0.00 | 0.00 | 34 | 1010.4 |
| 20260503204032 | 17 | 211 | 49.9 | 53.1 | 0.00 | 0.00 | 0.00 | 34 | 1010.3 |
| 20260503203529 | 17 | 216 | 48.3 | 51.5 | 0.00 | 0.00 | 0.00 | 34 | 1010.6 |
| 20260503203026 | 17 | 216 | 41.8 | 49.9 | 0.00 | 0.00 | 0.00 | 35 | 1010.5 |
| 20260503202524 | 17 | 210 | 45.1 | 51.5 | 0.00 | 0.00 | 0.00 | 32 | 1010.7 |
| 20260503202022 | 17 | 225 | 38.6 | 41.8 | 0.00 | 0.00 | 0.00 | 33 | 1010.8 |
| 20260503201520 | 17 | 226 | 48.3 | 53.1 | 0.00 | 0.00 | 0.00 | 33 | 1010.9 |
| 20260503201017 | 17 | 215 | 35.4 | 41.8 | 0.00 | 0.00 | 0.00 | 35 | 1010.6 |
| 20260503200513 | 17 | 218 | 37.0 | 38.6 | 0.00 | 0.00 | 0.00 | 35 | 1011.1 |
| 20260503200010 | 16 | 232 | 30.6 | 35.4 | 0.00 | 0.00 | 0.00 | 36 | 1011.0 |
| 20260503195507 | 17 | 242 | 41.8 | 51.5 | 0.00 | 0.00 | 0.00 | 33 | 1011.1 |
| 20260503195003 | 17 | 221 | 40.2 | 41.8 | 0.00 | 0.00 | 0.00 | 35 | 1011.0 |
| 20260503194501 | 17 | 217 | 38.6 | 41.8 | 0.00 | 0.00 | 0.00 | 36 | 1011.2 |
| 20260503193955 | 17 | 219 | 43.5 | 48.3 | 0.00 | 0.00 | 0.00 | 32 | 1011.2 |
| 20260503193451 | 17 | 215 | 38.6 | 43.5 | 0.00 | 0.00 | 0.00 | 35 | 1011.1 |
| 20260503192947 | 17 | 210 | 38.6 | 40.2 | 0.00 | 0.00 | 0.00 | 36 | 1011.1 |
| 20260503192444 | 16 | 217 | 38.6 | 43.5 | 0.00 | 0.00 | 0.00 | 36 | 1011.3 |
| 20260503191939 | 17 | 220 | 41.8 | 46.7 | 0.00 | 0.00 | 0.00 | 36 | 1011.2 |
| 20260503191437 | 16 | 212 | 45.1 | 51.5 | 0.00 | 0.00 | 0.00 | 34 | 1011.5 |
| 20260503190933 | 17 | 211 | 41.8 | 46.7 | 0.00 | 0.00 | 0.00 | 37 | 1011.5 |
| 20260503190431 | 17 | 225 | 46.7 | 53.1 | 0.00 | 0.00 | 0.00 | 34 | 1011.4 |
| 20260503185927 | 17 | 223 | 40.2 | 48.3 | 0.00 | 0.00 | 0.00 | 33 | 1011.6 |
| 20260503185424 | 16 | 228 | 37.0 | 41.8 | 0.00 | 0.00 | 0.00 | 34 | 1011.8 |
| 20260503184923 | 17 | 245 | 43.5 | 49.9 | 0.00 | 0.00 | 0.00 | 34 | 1011.7 |
| 20260503184420 | 17 | 207 | 24.1 | 29.0 | 0.00 | 0.00 | 0.00 | 32 | 1011.7 |
| 20260503183916 | 17 | 253 | 38.6 | 49.9 | 0.00 | 0.00 | 0.00 | 32 | 1012.0 |
| 20260503183413 | 17 | 227 | 37.0 | 40.2 | 0.00 | 0.00 | 0.00 | 35 | 1012.1 |
| 20260503182910 | 17 | 218 | 40.2 | 41.8 | 0.00 | 0.00 | 0.00 | 35 | 1011.9 |
| 20260503182409 | 16 | 222 | 45.1 | 48.3 | 0.00 | 0.00 | 0.00 | 35 | 1011.8 |
| 20260503181906 | 16 | 232 | 41.8 | 46.7 | 0.00 | 0.00 | 0.00 | 33 | 1012.0 |
| 20260503181403 | 16 | 231 | 38.6 | 40.2 | 0.00 | 0.00 | 0.00 | 32 | 1012.4 |
| 20260503180859 | 16 | 223 | 38.6 | 41.8 | 0.00 | 0.00 | 0.00 | 35 | 1012.0 |
| 20260503180357 | 16 | 227 | 33.8 | 38.6 | 0.00 | 0.00 | 0.00 | 34 | 1012.1 |
| 20260503175853 | 16 | 209 | 38.6 | 43.5 | 0.00 | 0.00 | 0.00 | 35 | 1012.2 |
| 20260503175352 | 16 | 230 | 40.2 | 43.5 | 0.00 | 0.00 | 0.00 | 35 | 1012.5 |
| 20260503174847 | 16 | 235 | 38.6 | 41.8 | 0.00 | 0.00 | 0.00 | 35 | 1012.6 |
| 20260503174345 | 16 | 264 | 37.0 | 41.8 | 0.00 | 0.00 | 0.00 | 35 | 1012.7 |
| 20260503173840 | 16 | 230 | 38.6 | 43.5 | 0.00 | 0.00 | 0.00 | 38 | 1012.6 |
| 20260503173336 | 16 | 241 | 41.8 | 46.7 | 0.00 | 0.00 | 0.00 | 34 | 1012.6 |
| 20260503172833 | 16 | 224 | 32.2 | 37.0 | 0.00 | 0.00 | 0.00 | 37 | 1012.7 |
| 20260503172331 | 16 | 253 | 35.4 | 38.6 | 0.00 | 0.00 | 0.00 | 32 | 1012.9 |
| 20260503171826 | 16 | 231 | 30.6 | 35.4 | 0.00 | 0.00 | 0.00 | 38 | 1012.8 |
| 20260503171324 | 16 | 216 | 43.5 | 51.5 | 0.00 | 0.00 | 0.00 | 36 | 1013.1 |
| 20260503170821 | 16 | 228 | 35.4 | 38.6 | 0.00 | 0.00 | 0.00 | 38 | 1013.0 |
| 20260503170317 | 15 | 212 | 37.0 | 40.2 | 0.00 | 0.00 | 0.00 | 39 | 1013.0 |
| 20260503150710 | 12 | 237 | 29.0 | 32.2 | 0.00 | 0.00 | 0.00 | 48 | 1014.3 |
| 20260503150206 | 12 | 216 | 24.1 | 27.4 | 0.00 | 0.00 | 0.00 | 52 | 1014.5 |
| 20260503140125 | 10 | 235 | 35.4 | 40.2 | 0.00 | 0.00 | 0.00 | 56 | 1014.8 |
| 20260503131054 | 8 | 230 | 27.4 | 29.0 | 0.00 | 0.00 | 0.00 | 57 | 1014.6 |
| 20260503130551 | 8 | 232 | 27.4 | 29.0 | 0.00 | 0.00 | 0.00 | 59 | 1014.9 |